Find XM-1

NORAD ID: 26761 Int'l Des: 2001-018 Owner: XMR Country: US operational
HEOCIRCULAR

Live Position

Loading 3D Globe...

About XM-1

Description loading...

Upcoming Passes

Passes for default location (London). Set your location on the main map for personalized predictions.

Altitude History

Loading altitude history...

Two-Line Element Set

1 26761U 01018A 26106.93258797 -.00000027 00000-0 00000-0 0 9997
2 26761 8.6935 62.3882 0012154 312.7419 191.6382 0.99005413 45510
Epoch: Apr 16, 2026 • Age: 14 hours

Current Status

Altitude 36106.3 km
Velocity 3.06 km/s
Sub-Earth Point -0.75°S, 23.41°E
Launch Date May 8, 2001
Age 24.9 years
Type other

Technical Details

Classification Payload
Mass 4667.00 kg
Dry Mass 2500.00 kg
Total Mass 4667.00 kg
Length 7.00 m
Diameter 3.30 m
Span 40.40 m
Shape Box + 2 Pan
Manufacturer BOES
Bus Type BSS-702HP
Phase Status In Orbit
Owner/State XMR/US

Most Searched